Location: Nairn
(57.5833°N, 3.8667°W)
Time: 19:05:52
(UTC+00:00)

Cosmos 1378 Rocket - Pass Details

Date: 07 August 2020
Orbit: 600 x 628 km, 82.5° (Epoch: 24 September)

Event Time Altitude Azimuth Distance (km) Brightness Sun altitude
Rises 00:25:51 0° 343° (NNW) 2,934 8.5 -16.1°
Reaches altitude 10° 00:28:11 10° 337° (NNW) 2,022 7.2 -16.1°
Maximum altitude 00:32:24 41° 267° (W) 915 4.3 -16.0°
Enters shadow 00:34:29 25° 213° (SSW) 1,277 4.7 -16.0°
